Weather History for KMWC - September, 2013

Change the Weather History Date:

Monday, September 16, 2013

  Actual Average Record
Temperature  
Mean Temperature 51 °F -  
Max Temperature 60 °F 71 °F 93 °F (1948)
Min Temperature 42 °F 52 °F 37 °F (2007)
Degree Days  
Heating Degree Days 14    
Growing Degree Days 1 (Base 50)    
Moisture  
Dew Point 41 °F    
Average Humidity 73    
Maximum Humidity 87    
Minimum Humidity 48    
Precipitation  
Precipitation 0.00 in - - ()
Sea Level Pressure  
Sea Level Pressure 30.34 in    
Wind  
Wind Speed 9 mph (North)    
Max Wind Speed 14 mph    
Max Gust Speed 20 mph    
Visibility 10 miles    
Events      
Averages and records for this station are not official NWS values.
T = Trace of Precipitation, MM = Missing Value Source: NWS Daily Summary

Daily Weather History Graph

Daily Weather History Graph

Search for Another Location

Airport or City:

Trip Planner

Search our weather history database for the weather conditions in past years. The results will help you decide how hot, cold, wet, or windy it might be!

Date:

Astronomy

Sep. 16, 2013 Rise Set
Actual Time 6:33 AM CDT 6:59 PM CDT
Civil Twilight 6:04 AM CDT 7:28 PM CDT
Nautical Twilight 5:30 AM CDT 8:01 PM CDT
Astronomical Twilight 4:56 AM CDT 8:36 PM CDT
Moon 5:11 PM CDT (9/16) 3:14 AM CDT (9/16)
Length of Visible Light 13h 23m
Length of Day
12h 26m
Waxing Gibbous, 90% of the Moon is Illuminated
Sep 16
Waxing Gibbous
Sep 19
Full
Sep 26
Last Quarter
Oct 4
New
Oct 11
First Quarter

Hourly Weather History & Observations

Time (CDT) Temp. Windchill Dew Point Humidity Pressure Visibility Wind Dir Wind Speed Gust Speed Precip Events Conditions
12:15 AM 51.8 °F - 44.6 °F 76% 30.25 in 10.0 mi NNE 13.8 mph - N/A   Overcast
12:35 AM 51.8 °F - 44.6 °F 76% 30.26 in 10.0 mi North 11.5 mph - N/A   Overcast
12:55 AM 51.8 °F - 42.8 °F 71% 30.26 in 10.0 mi North 10.4 mph 19.6 mph N/A   Overcast
1:15 AM 50.0 °F - 42.8 °F 76% 30.27 in 10.0 mi North 10.4 mph - N/A   Mostly Cloudy
1:35 AM 48.2 °F - 41.0 °F 76% 30.28 in 10.0 mi North 10.4 mph - N/A   Scattered Clouds
1:55 AM 46.4 °F 41.5 °F 41.0 °F 81% 30.28 in 10.0 mi North 10.4 mph - N/A   Scattered Clouds
2:15 AM 46.4 °F 42.4 °F 41.0 °F 81% 30.28 in 10.0 mi North 8.1 mph - N/A   Clear
2:35 AM 46.4 °F 42.9 °F 39.2 °F 76% 30.28 in 10.0 mi North 6.9 mph - N/A   Clear
2:55 AM 46.4 °F 42.9 °F 39.2 °F 76% 30.29 in 10.0 mi NNW 6.9 mph - N/A   Clear
3:15 AM 44.6 °F 40.7 °F 37.4 °F 76% 30.29 in 10.0 mi NNW 6.9 mph - N/A   Scattered Clouds
3:35 AM 44.6 °F 39.7 °F 37.4 °F 76% 30.30 in 10.0 mi NNW 9.2 mph - N/A   Mostly Cloudy
3:55 AM 44.6 °F 40.2 °F 37.4 °F 76% 30.30 in 10.0 mi NNW 8.1 mph - N/A   Scattered Clouds
4:15 AM 44.6 °F 39.7 °F 37.4 °F 76% 30.31 in 10.0 mi NNW 9.2 mph - N/A   Clear
4:35 AM 44.6 °F 39.2 °F 37.4 °F 76% 30.31 in 10.0 mi North 10.4 mph - N/A   Scattered Clouds
4:55 AM 44.6 °F 39.2 °F 37.4 °F 76% 30.31 in 10.0 mi North 10.4 mph - N/A   Clear
5:15 AM 44.6 °F 39.2 °F 37.4 °F 76% 30.32 in 10.0 mi NNW 10.4 mph - N/A   Clear
5:35 AM 42.8 °F 37.5 °F 37.4 °F 81% 30.32 in 10.0 mi NNW 9.2 mph - N/A   Clear
5:55 AM 42.8 °F 38.0 °F 37.4 °F 81% 30.33 in 10.0 mi NNW 8.1 mph - N/A   Clear
6:15 AM 42.8 °F 38.0 °F 37.4 °F 81% 30.33 in 10.0 mi NNW 8.1 mph - N/A   Clear
6:35 AM 42.8 °F 38.6 °F 37.4 °F 81% 30.34 in 10.0 mi NNW 6.9 mph - N/A   Scattered Clouds
6:45 AM 44.6 °F 40.2 °F 37.4 °F 76% 30.34 in 10.0 mi NNW 8.1 mph - N/A   Scattered Clouds
6:55 AM 42.8 °F 38.0 °F 37.4 °F 81% 30.35 in 10.0 mi North 8.1 mph - N/A   Scattered Clouds
7:45 AM 46.4 °F 41.9 °F 39.2 °F 76% 30.36 in 10.0 mi North 9.2 mph - N/A   Clear
8:45 AM 51.8 °F - 41.0 °F 67% 30.37 in 10.0 mi North 12.7 mph - N/A   Scattered Clouds
9:45 AM 55.4 °F - 44.6 °F 67% 30.39 in 10.0 mi North 11.5 mph - N/A   Clear
10:45 AM 57.2 °F - 44.6 °F 63% 30.40 in 10.0 mi North 10.4 mph - N/A   Mostly Cloudy
11:45 AM 60.8 °F - 42.8 °F 52% 30.40 in 10.0 mi NE 11.5 mph 19.6 mph N/A   Mostly Cloudy
12:45 PM 60.8 °F - 42.8 °F 52% 30.40 in 10.0 mi NNE 13.8 mph 19.6 mph N/A   Scattered Clouds
1:45 PM 60.8 °F - 42.8 °F 52% 30.40 in 10.0 mi NE 11.5 mph 18.4 mph N/A   Scattered Clouds
2:45 PM 60.8 °F - 42.8 °F 52% 30.38 in 10.0 mi NE 13.8 mph - N/A   Scattered Clouds
3:45 PM 60.8 °F - 41.0 °F 48% 30.37 in 10.0 mi NE 9.2 mph - N/A   Partly Cloudy
4:45 PM 59.0 °F - 39.2 °F 48% 30.37 in 10.0 mi NE 8.1 mph - N/A   Clear
5:45 PM 57.2 °F - 42.8 °F 59% 30.37 in 10.0 mi NE 8.1 mph - N/A   Clear
6:45 PM 55.4 °F - 42.8 °F 63% 30.36 in 10.0 mi NE 8.1 mph - N/A   Clear
7:45 PM 53.6 °F - 42.8 °F 67% 30.35 in 10.0 mi NNE 4.6 mph - N/A   Clear
8:45 PM 51.8 °F - 42.8 °F 71% 30.35 in 10.0 mi NNE 4.6 mph - N/A   Clear
9:15 PM 50.0 °F - 41.0 °F 71% 30.35 in 10.0 mi Calm Calm - N/A   Clear
9:35 PM 48.2 °F - 41.0 °F 76% 30.35 in 10.0 mi Calm Calm - N/A   Clear
9:55 PM 46.4 °F - 41.0 °F 81% 30.36 in 10.0 mi Calm Calm - N/A   Clear
10:15 PM 44.6 °F - 41.0 °F 87% 30.36 in 10.0 mi Calm Calm - N/A   Clear
10:35 PM 46.4 °F - 41.0 °F 81% 30.36 in 10.0 mi Calm Calm - N/A   Clear
10:55 PM 44.6 °F - 41.0 °F 87% 30.36 in 10.0 mi Calm Calm - N/A   Scattered Clouds
11:15 PM 44.6 °F - 41.0 °F 87% 30.36 in 10.0 mi Calm Calm - N/A   Scattered Clouds
11:35 PM 44.6 °F - 41.0 °F 87% 30.36 in 10.0 mi Calm Calm - N/A   Scattered Clouds
11:55 PM 44.6 °F - 41.0 °F 87% 30.36 in 10.0 mi Calm Calm - N/A   Scattered Clouds